Danville, KY

10:45 PM EDT on March 27, 2017 (GMT -0400)
Powell

Weather History for KDVK - May, 2013

Change the Weather History Date:

Sunday, May 19, 2013

  Actual Average (KLEX) Record (KLEX)
Temperature  
Mean Temperature 72 °F -  
Max Temperature 82 °F 76 °F 91 °F (1944)
Min Temperature 62 °F 56 °F 32 °F (2002)
Cooling Degree Days 7    
Growing Degree Days 22 (Base 50)    
Moisture  
Dew Point 66 °F    
Average Humidity 87    
Maximum Humidity 100    
Minimum Humidity 62    
Precipitation  
Precipitation 0.00 in - - ()
Sea Level Pressure  
Sea Level Pressure 30.00 in    
Wind  
Wind Speed 3 mph (SSW)    
Max Wind Speed 10 mph    
Max Gust Speed -    
Visibility 7 miles    
Events Fog    
Averages and records for this station are not official NWS values.
T = Trace of Precipitation, MM = Missing Value Source: NWS Daily Summary

Daily Weather History Graph

Daily Weather History Graph

Search for Another Location

Airport or City:

Trip Planner

Search our weather history database for the weather conditions in past years. The results will help you decide how hot, cold, wet, or windy it might be!

Date:

Astronomy

May. 19, 2013 Rise Set
Actual Time 6:26 AM EDT 8:45 PM EDT
Civil Twilight 5:56 AM EDT 9:14 PM EDT
Nautical Twilight 5:20 AM EDT 9:51 PM EDT
Astronomical Twilight 4:40 AM EDT 10:31 PM EDT
Moon 2:55 PM EDT (5/19) 2:42 AM EDT (5/19)
Length of Visible Light 15h 18m
Length of Day
14h 18m
Waxing Gibbous, 65% of the Moon is Illuminated
May 19
Waxing Gibbous
May 25
Full
May 31
Last Quarter
Jun 8
New
Jun 16
First Quarter

Hourly Weather History & Observations

Time (EDT) Temp. Heat Index Dew Point Humidity Pressure Visibility Wind Dir Wind Speed Gust Speed Precip Events Conditions
12:15 AM 64.4 °F - 64.4 °F 100% 30.02 in 10.0 mi Calm Calm - N/A   Overcast
12:35 AM 64.4 °F - 64.4 °F 100% 30.02 in 7.0 mi Calm Calm - N/A   Overcast
12:55 AM 64.4 °F - 64.4 °F 100% 30.02 in 7.0 mi South 3.5 mph - N/A   Scattered Clouds
1:15 AM 64.4 °F - 64.4 °F 100% 30.01 in 5.0 mi SSW 3.5 mph - N/A   Clear
1:35 AM 64.4 °F - 62.6 °F 94% 30.00 in 5.0 mi Calm Calm - N/A   Clear
1:55 AM 62.6 °F - 62.6 °F 100% 30.00 in 4.0 mi Calm Calm - N/A   Clear
2:15 AM 62.6 °F - 62.6 °F 100% 30.00 in 2.5 mi Calm Calm - N/A   Scattered Clouds
2:35 AM 62.6 °F - 62.6 °F 100% 30.00 in 2.0 mi Calm Calm - N/A   Mostly Cloudy
3:15 AM 62.6 °F - 62.6 °F 100% 30.00 in 1.2 mi Calm Calm - N/A   Overcast
3:35 AM 62.6 °F - 62.6 °F 100% 30.00 in 1.2 mi Calm Calm - N/A   Mostly Cloudy
4:15 AM 62.6 °F - 62.6 °F 100% 30.00 in 0.2 mi Calm Calm - N/A Fog Fog
4:35 AM 62.6 °F - 62.6 °F 100% 30.01 in 0.8 mi South 3.5 mph - N/A   Overcast
4:55 AM 62.6 °F - 62.6 °F 100% 30.02 in 0.5 mi SSW 3.5 mph - N/A Fog Fog
5:15 AM 62.6 °F - 62.6 °F 100% 30.02 in 0.2 mi South 4.6 mph - N/A Fog Fog
5:35 AM 62.6 °F - 62.6 °F 100% 30.01 in 0.2 mi South 4.6 mph - N/A Fog Fog
5:55 AM 62.6 °F - 62.6 °F 100% 30.01 in 0.2 mi South 3.5 mph - N/A Fog Fog
6:15 AM 62.6 °F - 62.6 °F 100% 30.01 in 0.2 mi South 4.6 mph - N/A Fog Fog
6:35 AM 62.6 °F - 62.6 °F 100% 30.02 in 0.2 mi South 4.6 mph - N/A Fog Fog
6:55 AM 62.6 °F - 62.6 °F 100% 30.02 in 0.2 mi South 3.5 mph - N/A Fog Fog
7:15 AM 62.6 °F - 62.6 °F 100% 30.01 in 0.2 mi South 5.8 mph - N/A Fog Fog
7:35 AM 64.4 °F - 64.4 °F 100% 30.02 in 0.2 mi South 4.6 mph - N/A Fog Fog
7:55 AM 64.4 °F - 64.4 °F 100% 30.03 in 0.5 mi South 6.9 mph - N/A Fog Fog
8:35 AM 64.4 °F - 64.4 °F 100% 30.03 in 2.5 mi SSW 4.6 mph - N/A   Overcast
8:55 AM 66.2 °F - 66.2 °F 100% 30.03 in 4.0 mi South 3.5 mph - N/A   Overcast
9:15 AM 68.0 °F - 68.0 °F 100% 30.04 in 7.0 mi SSW 5.8 mph - N/A   Overcast
9:35 AM 68.0 °F - 68.0 °F 100% 30.05 in 7.0 mi SW 6.9 mph - N/A   Overcast
9:55 AM 68.0 °F - 68.0 °F 100% 30.05 in 7.0 mi SSW 6.9 mph - N/A   Overcast
10:15 AM 69.8 °F - 68.0 °F 94% 30.04 in 7.0 mi SW 5.8 mph - N/A   Overcast
10:55 AM 71.6 °F - 69.8 °F 94% 30.04 in 10.0 mi South 4.6 mph - N/A   Overcast
11:15 AM 73.4 °F - 69.8 °F 88% 30.04 in 10.0 mi South 3.5 mph - N/A   Overcast
11:35 AM 75.2 °F - 68.0 °F 78% 30.03 in 10.0 mi SSW 3.5 mph - N/A   Overcast
11:55 AM 77.0 °F - 69.8 °F 78% 30.03 in 10.0 mi South 6.9 mph - N/A   Overcast
12:15 PM 77.0 °F - 68.0 °F 74% 30.03 in 10.0 mi South 8.1 mph - N/A   Mostly Cloudy
12:55 PM 78.8 °F - 68.0 °F 69% 30.02 in 10.0 mi Calm Calm - N/A   Mostly Cloudy
1:15 PM 78.8 °F - 68.0 °F 69% 30.01 in 10.0 mi Calm Calm - N/A   Scattered Clouds
1:35 PM 78.8 °F - 68.0 °F 69% 30.00 in 10.0 mi Calm Calm - N/A   Mostly Cloudy
1:55 PM 80.6 °F 83.2 °F 68.0 °F 65% 30.00 in 10.0 mi South 5.8 mph - N/A   Mostly Cloudy
2:15 PM 80.6 °F 83.2 °F 68.0 °F 65% 30.00 in 10.0 mi WSW 5.8 mph - N/A   Scattered Clouds
2:35 PM 82.4 °F 85.4 °F 68.0 °F 62% 30.00 in 10.0 mi SE 5.8 mph - N/A   Mostly Cloudy
2:55 PM 82.4 °F 85.4 °F 68.0 °F 62% 29.98 in 10.0 mi Calm Calm - N/A   Mostly Cloudy
3:15 PM 82.4 °F 85.4 °F 68.0 °F 62% 29.98 in 10.0 mi South 6.9 mph - N/A   Scattered Clouds
3:35 PM 82.4 °F 85.4 °F 68.0 °F 62% 29.98 in 10.0 mi South 4.6 mph - N/A   Scattered Clouds
3:55 PM 82.4 °F 85.4 °F 68.0 °F 62% 29.97 in 10.0 mi SW 8.1 mph - N/A   Mostly Cloudy
4:15 PM 80.6 °F 83.2 °F 68.0 °F 65% 29.97 in 10.0 mi SW 8.1 mph - N/A   Mostly Cloudy
4:35 PM 80.6 °F 83.2 °F 68.0 °F 65% 29.96 in 10.0 mi SSW 6.9 mph - N/A   Mostly Cloudy
4:55 PM 80.6 °F 83.2 °F 68.0 °F 65% 29.95 in 10.0 mi SSW 9.2 mph - N/A   Mostly Cloudy
5:15 PM 78.8 °F - 68.0 °F 69% 29.96 in 10.0 mi SSW 10.4 mph - N/A   Mostly Cloudy
5:55 PM 77.0 °F - 69.8 °F 78% 29.96 in 7.0 mi South 9.2 mph - N/A   Overcast
6:15 PM 77.0 °F - 68.0 °F 74% 29.96 in 10.0 mi SSW 10.4 mph - N/A   Mostly Cloudy
6:35 PM 75.2 °F - 69.8 °F 83% 29.97 in 10.0 mi South 6.9 mph - N/A   Scattered Clouds
6:55 PM 77.0 °F - 69.8 °F 78% 29.97 in 10.0 mi SSW 5.8 mph - N/A   Clear
7:35 PM 75.2 °F - 69.8 °F 83% 29.96 in 10.0 mi SSW 6.9 mph - N/A   Clear
7:55 PM 75.2 °F - 69.8 °F 83% 29.98 in 10.0 mi SSW 4.6 mph - N/A   Clear
8:15 PM 73.4 °F - 69.8 °F 88% 29.98 in 10.0 mi SSW 3.5 mph - N/A   Scattered Clouds
8:35 PM 73.4 °F - 69.8 °F 88% 29.97 in 10.0 mi SSW 5.8 mph - N/A   Scattered Clouds
8:55 PM 73.4 °F - 68.0 °F 83% 29.98 in 10.0 mi SSW 6.9 mph - N/A   Clear
9:15 PM 71.6 °F - 68.0 °F 88% 29.98 in 10.0 mi SSW 6.9 mph - N/A   Clear
9:35 PM 69.8 °F - 66.2 °F 88% 29.98 in 10.0 mi South 5.8 mph - N/A   Clear
9:55 PM 69.8 °F - 66.2 °F 88% 29.99 in 10.0 mi SSW 8.1 mph - N/A   Clear
10:35 PM 69.8 °F - 64.4 °F 83% 30.00 in 10.0 mi SSW 8.1 mph - N/A   Clear
10:55 PM 69.8 °F - 64.4 °F 83% 30.00 in 10.0 mi SSW 6.9 mph - N/A   Mostly Cloudy
11:15 PM 68.0 °F - 64.4 °F 88% 30.01 in 10.0 mi SSW 5.8 mph - N/A   Overcast
11:35 PM 68.0 °F - 64.4 °F 88% 30.00 in 10.0 mi SSW 6.9 mph - N/A   Overcast
11:55 PM 68.0 °F - 62.6 °F 83% 30.00 in 10.0 mi SSW 6.9 mph - N/A   Overcast